Regional Weather Roundup
Issued by NWS Albany, NY

Home | Current Version | Previous Version | Text Only | Print | Product List | Glossary On
Versions: 1 2 3 4 5 6 7 8 9 10 11 12 13 14 15 16 17 18 19 20 21 22 23 24 25 26 27 28 29 30 31 32 33 34 35 36 37 38 39 40 41 42 43 44 45 46 47 48 49 50
000
ASUS41 KALY 241510
RWRALY

NEW YORK STATE HOURLY WEATHER ROUNDUP
NATIONAL WEATHER SERVICE ALBANY NY
1100 AM EDT WED MAY 24 2017

NOTE: "FAIR" INDICATES FEW OR NO CLOUDS BELOW 12,000 FEET WITH NO
SIGNIFICANT WEATHER AND/OR NO OBSTRUCTIONS TO VISIBILITY.

NYZ032-033-038>043-046>054-057>066-NYZ062>081-082-084-241600-
EAST


CITY           SKY/WX    TMP DP  RH WIND       PRES   REMARKS
ALBANY         CLOUDY    64  53  67 CALM      29.79S
GLENS FALLS    NOT AVBL
POUGHKEEPSIE   CLOUDY    64  53  67 CALM      29.77S
NEWBURGH       PTSUNNY   64  54  68 VRB6      29.79S
MONTGOMERY     CLOUDY    64  53  67 N6        29.78S
WHITE PLAINS   CLOUDY    64  51  62 VRB5      29.77R
ISLIP          CLOUDY    62  55  77 NE12      29.74S
NEW YORK CITY  CLOUDY    61  52  72 NE8       29.77R
CENTRAL PARK   CLOUDY    63  53  70 E3        29.80R
$$

NYZ005>009-017-018-044>046-055-056-241600-
CENTRAL


CITY           SKY/WX    TMP DP  RH WIND       PRES   REMARKS
FULTON         MOSUNNY   69  54  58 SE6       29.74F
SYRACUSE       CLOUDY    69  52  54 NE8       29.73F
ROME           CLOUDY    68  57  68 E3        29.75F
ELMIRA         SUNNY     67  50  54 E6        29.72F
BINGHAMTON     MOSUNNY   62  49  62 SE8       29.76F
MONTICELLO     CLOUDY    63  54  72 E5        29.81S
$$

NYZ026>034-041>043-087-241600-
NORTH


CITY           SKY/WX    TMP DP  RH WIND       PRES   REMARKS
WATERTOWN      CLOUDY    69  55  60 CALM      29.74F
FORT DRUM      NOT AVBL
OGDENSBURG     FAIR      65  55  71 CALM      29.78S
MASSENA        CLOUDY    65  53  65 NE6       29.79R
SARANAC LAKE   CLOUDY    66  48  52 E3        29.79R
PLATTSBURGH    MOSUNNY   64  53  67 E3        29.78S
$$

NYZ001>004-010>016-019>021-085-241600-
WEST


CITY           SKY/WX    TMP DP  RH WIND       PRES   REMARKS
NIAGARA FALLS  MOSUNNY   73  42  32 E13       29.67F
BUFFALO        CLOUDY    69  40  34 SE6       29.68F
DUNKIRK        CLOUDY    66  52  60 N7        29.68R
JAMESTOWN      CLOUDY    63  50  63 S10       29.69S
WELLSVILLE     CLOUDY    66  48  52 VRB7      29.74S
ROCHESTER      CLOUDY    68  47  46 SE12      29.71F
PENN YAN       CLOUDY    67  47  48 VRB7      29.73F
$$

             KEY
       WCI = WIND CHILL INDEX
       VSB = VISIBILITY
       HX  = HEAT INDEX
$$



USA.gov is the U.S. government's official web portal to all federal, state and local government web resources and services.